Find Starlink 33860

NORAD ID: 64033 Int'l Des: 2025-102 Owner: SPXS Country: US Constellation: starlink operational
LEOCIRCULAR

現在のビュー

3D地球を読み込み中...

About Starlink 33860

Starlink 33860 (NORAD 64033) is a starlink constellation satellite (v2 mini) launched May 16, 2025 by SPXS of US. It operates in LEO, CIRCULAR orbit with a mass of 575.00 kg.

次回通過

Passes for default location (London). Set your location on the main map for personalized predictions.

高度履歴

Loading altitude history...

軌道要素

1 64033U 25102M 26235.45740561 .00011778 00000-0 99238-3 0 9994
2 64033 70.0039 53.9243 0001901 252.8222 107.2729 14.98364202 70944
Epoch: Aug 23, 2026 • Age: 18 hours

現在のステータス

高度 575.0 km
遠地点 / 近地点 N/A
速度 7.58 km/s
衛星直下点 27.51°N, 169.56°E
打ち上げ日 May 16, 2025
運用期間 1.2 years
タイプ internet

技術仕様

分類 Payload
質量 575.00 kg
乾燥質量 530.00 kg
総質量 575.00 kg
長さ 0.30 m
直径 4.10 m
スパン 29.00 m
形状 Box + pan
製造者 SPXS
バスタイプ Starlink V2MO
フェーズステータス In Orbit
所有者/国 SPXS/US

Most Searched